RH
96 96 98 97 94 99 91 83 79 70 64 59 57 52 47 50 57 56 70 72 68 74 62 53 29 23 42 54 55 54 61 62 59 60 61 61 63 61 59 56 49 42 34 29 31 40 35 22 24 29 31 30 34 39
92 97 98 96 93 91 85 88 87 81 72 63 59 51 46 50 52 54 87 88 82 71 57 37 48 62 68 64 55 55 60 55 57 63 63 62 65 62 57 53 45 44 38 34 32 26 26 28 30 32 33 34 39 48
98 96 97 98 91 82 86 94 98 80 68 62 58 53 46 46 50 65 85 82 70 66 62 55 66 67 67 66 65 62 57 62 61 62 61 64 64 56 50 42 37 34 32 30 28 24 27 33 41 44 47 47 47 48
97 90 89 91 78 77 82 97 98 82 69 58 48 48 48 47 54 62 87 71 66 60 61 74 73 71 68 66 58 62 65 66 66 69 70 70 68 59 52 48 44 38 32 30 33 36 45 49 52 59 60 64 64 65
92 95 93 78 67 69 95 98 97 94 79 60 50 47 49 51 65 79 88 72 64 60 51 51 54 61 66 68 69 71 70 71 72 72 68 69 68 66 62 57 47 33 39 46 49 48 63 59 61 64 67 66 67 65
96 88 82 79 81 96 73 90 90 90 89 80 58 59 64 79 76 75 78 66 54 53 40 54 53 57 61 68 72 76 77 76 76 66 69 73 65 66 73 60 42 47 55 52 52 58 58 60 66 65 66 68 67 66
87 90 92 89 92 92 80 89 84 83 91 80 77 79 76 73 70 70 64 56 42 40 39 39 42 50 60 62 71 76 78 78 74 70 62 55 47 53 59 58 49 47 46 52 61 63 64 70 75 78 76 82 91 92
92 90 88 94 97 95 94 81 88 90 70 76 91 72 67 64 58 57 52 46 46 45 44 44 41 37 39 42 46 45 46 46 45 48 48 49 56 57 70 65 57 49 50 58 69 77 82 82 82 78 78 78 80 95
95 91 88 94 97 95 97 97 85 76 71 63 54 50 47 46 45 44 44 42 40 41 41 39 38 37 40 38 37 38 41 47 47 52 51 53 61 70 60 58 56 58 64 66 67 71 76 78 76 75 80 90 99 100
97 96 95 95 98 95 94 96 94 82 78 71 66 61 54 48 46 45 47 48 49 50 49 47 47 46 46 45 43 43 45 51 55 51 51 53 60 57 48 48 53 60 68 79 83 84 80 80 81 88 100 99 99 99
97 98 99 99 98 98 96 96 95 92 86 82 78 80 72 66 64 62 61 60 59 58 56 54 52 51 50 50 50 53 53 53 56 61 60 89 99 77 62 67 80 85 90 90 87 84 80 90 100 100 99 97 98 97
97 97 95 90 96 94 95 98 97 98 98 89 80 76 72 68 68 68 66 60 57 55 53 49 47 50 52 55 59 64 68 70 74 74 81 100 97 88 89 91 93 90 85 76 71 74 94 100 97 98 97 96 95 94
98 100 98 97 96 94 86 83 82 85 86 88 90 81 79 75 68 69 61 58 55 53 50 46 51 54 59 65 85 81 84 92 89 98 100 99 98 100 100 94 92 88 88 96 99 99 99 98 96 94 90 83 69 56
97 98 98 98 99 99 94 88 84 80 81 80 76 75 67 77 76 69 64 59 56 57 61 63 70 77 79 85 89 94 100 100 99 99 99 99 99 97 97 96 95 95 94 94 94 94 93 91 86 78 77 70 54 39
37 45 46 66 96 98 98 98 98 98 99 95 90 91 91 84 89 82 82 86 82 89 90 91 90 92 93 93 92 94 98 100 98 98 94 95 94 95 99 98 97 98 97 96 93 86 77 75 73 62 51 41 34 31
15 15 16 16 18 22 48 86 98 98 97 97 97 97 98 100 98 97 94 94 93 95 96 98 99 99 99 97 98 99 98 93 92 86 94 98 98 97 97 96 96 95 93 88 79 65 59 54 50 44 40 38 37 38
8 12 14 15 15 14 14 38 86 88 88 92 74 90 95 95 95 96 96 96 96 98 98 97 96 96 96 98 98 99 97 96 96 96 96 96 96 96 96 94 79 68 72 70 61 57 54 49 44 43 44 45 45 45
7 8 11 13 15 15 15 20 23 37 37 36 25 40 70 79 87 89 87 83 82 85 97 99 97 98 96 96 90 92 93 94 94 95 97 96 92 83 73 72 68 65 63 63 59 52 49 48 48 47 44 42 43 46
6 7 8 9 8 9 9 13 14 10 16 21 25 46 70 80 78 77 81 83 84 90 94 97 93 94 93 92 93 91 90 86 81 76 67 59 60 63 65 65 68 69 66 59 53 51 49 47 49 53 58 56 54 50
8 7 7 8 8 8 8 11 11 11 16 26 32 54 66 78 75 79 75 70 70 69 68 68 61 64 65 68 69 71 73 72 70 66 62 65 64 65 68 68 66 62 56 53 53 55 58 63 66 66 66 59 47 31
7 6 6 6 6 6 6 6 8 10 12 20 22 37 45 64 72 72 73 72 71 70 70 74 79 79 76 79 80 80 81 82 89 84 75 71 69 71 73 68 62 58 58 60 63 69 73 74 76 70 53 30 24 25
6 5 5 5 4 4 5 6 6 9 10 14 19 28 34 37 43 52 58 65 74 66 81 86 84 82 80 84 87 86 86 91 95 92 85 77 74 74 72 65 64 68 74 77 79 79 82 81 63 34 25 25 23 16
6 6 6 5 5 6 10 8 8 9 10 21 23 42 51 56 56 60 72 78 77 81 83 85 91 98 100 100 98 97 93 95 91 89 86 82 72 68 70 76 81 82 82 86 91 91 72 40 30 29 24 16 17 21
7 6 10 22 22 22 26 29 28 28 25 39 48 57 62 68 72 77 79 83 86 85 86 88 95 100 99 98 97 96 97 98 87 88 88 78 74 81 89 89 88 95 97 96 82 48 36 34 27 18 17 21 24 25
12 28 41 54 56 60 63 66 63 60 66 73 72 79 88 94 95 93 86 81 86 96 97 97 98 98 98 97 97 97 97 97 97 92 82 79 84 91 97 100 100 98 87 56 43 38 32 20 18 20 25 26 29 30
36 46 53 66 73 80 78 84 82 78 70 80 88 93 98 100 100 100 96 97 100 97 98 98 97 97 97 97 97 97 97 97 92 85 89 96 100 100 100 100 85 56 46 39 33 24 19 21 22 24 29 30 33 30
56 62 72 76 80 81 81 83 82 80 88 100 100 99 98 97 98 98 97 97 96 97 97 97 97 97 97 97 96 96 97 99 99 100 100 100 100 96 70 54 48 43 37 27 20 21 26 27 25 27 31 34 34 26
73 81 75 76 74 69 71 72 77 85 93 97 97 96 94 95 94 91 88 89 91 92 96 98 98 99 100 99 99 99 98 98 99 100 90 64 54 53 51 48 42 32 24 23 26 29 30 28 29 32 36 35 27 26
57 51 52 55 55 56 60 65 64 67 70 70 73 77 84 82 79 77 81 83 88 92 96 100 100 100 100 99 99 99 95 75 53 50 52 57 67 70 62 47 32 26 28 30 29 30 31 33 36 38 31 27 24 30
49 45 42 37 34 35 49 56 63 66 71 73 75 78 83 91 96 96 94 94 94 94 95 97 98 95 87 70 54 51 52 59 68 79 86 85 74 57 44 32 30 32 31 28 31 37 39 39 36 28 25 26 27 36
15 14 15 16 21 26 28 32 36 52 69 83 89 88 81 67 51 40 36 35 35 38 44 47 50 58 64 67 70 74 81 86 84 78 75 65 53 42 33 32 35 40 39 38 41 42 38 32 30 25 24 25 29 43
14 14 16 20 25 32 39 43 44 44 44 41 37 33 30 30 32 32 33 43 54 58 63 71 82 84 82 83 91 94 87 79 68 58 54 48 38 34 37 41 46 50 50 47 46 42 36 31 29 25 22 24 36 53
16 16 19 24 28 32 37 38 35 34 32 30 27 28 27 28 29 28 37 49 64 84 97 100 100 99 93 78 60 49 49 48 44 40 37 37 39 40 42 48 52 52 52 50 49 45 37 33 31 29 24 27 41 59
Wind_Speed
64 57 49 50 50 44 43 41 38 36 35 35 35 36 39 43 42 37 29 22 21 20 16 20 25 29 34 27 23 22 20 20 17 15 13 12 9 11 12 14 13 13 7 8 8 7 8 6 8 10 15 24 24 19
58 44 50 48 47 44 41 36 32 31 30 31 33 34 38 41 38 35 29 22 18 13 15 24 28 23 25 24 22 20 20 13 16 16 14 9 12 12 15 15 16 15 16 12 11 12 19 24 24 21 22 23 23 26
49 50 46 42 41 39 36 33 30 30 30 30 30 33 36 38 38 39 36 22 19 15 17 24 24 22 22 21 20 20 19 19 15 14 14 14 15 15 15 14 15 16 15 21 24 23 22 23 24 23 23 24 24 26
50 47 43 40 37 35 32 30 31 30 28 27 28 32 35 39 43 39 34 21 16 15 19 24 23 23 22 21 20 19 18 17 16 16 16 18 20 16 16 16 15 16 20 24 26 24 22 20 22 24 25 26 26 27
46 43 39 38 35 32 32 30 29 29 27 27 30 33 34 31 31 20 16 14 14 16 17 21 21 21 20 19 20 20 19 18 18 19 20 20 19 20 22 20 20 20 20 21 24 23 26 25 25 27 28 29 28 29
41 38 37 36 34 32 26 22 36 28 29 28 30 32 33 30 26 24 17 16 18 20 9 19 18 20 19 19 18 18 18 19 20 19 19 21 21 21 15 16 21 21 23 25 27 27 27 25 25 27 29 29 30 32
36 35 35 35 35 35 26 20 28 26 34 29 29 30 29 27 25 25 22 20 19 19 14 12 14 17 16 16 18 19 19 20 20 21 22 22 22 22 26 26 24 25 26 24 25 27 28 28 30 31 32 31 31 31
33 29 29 24 36 33 27 25 20 23 25 23 25 24 25 25 23 22 19 17 18 17 16 12 10 12 15 17 17 18 20 21 22 23 23 24 24 24 24 20 24 26 27 28 28 30 34 34 33 33 33 32 30 27
31 28 25 21 30 31 25 25 22 23 22 22 20 20 19 19 19 19 17 16 16 17 13 12 12 11 10 12 15 17 20 23 24 25 25 25 26 22 22 26 29 31 32 31 32 30 29 29 29 29 29 28 25 23
27 27 26 20 20 34 28 24 21 20 21 19 18 16 16 16 16 15 14 15 15 16 15 13 11 12 12 14 15 17 18 17 14 19 19 22 27 26 26 29 29 30 29 27 27 25 25 28 30 30 27 26 26 24
25 24 21 18 14 16 29 26 24 22 20 16 16 17 16 16 15 15 13 11 11 10 13 16 16 17 19 19 17 14 11 9 11 14 16 13 15 23 25 25 25 26 26 25 26 28 28 24 21 22 20 19 17 14
21 19 17 15 15 12 14 23 22 21 21 18 16 15 14 11 10 10 9 9 7 10 12 14 19 22 23 21 17 13 15 8 8 11 10 6 19 23 23 22 21 24 24 21 20 19 17 13 11 9 8 9 13 22
24 24 21 20 18 17 15 14 13 13 14 15 17 17 10 12 11 9 11 11 14 17 16 15 15 16 17 18 12 9 8 9 10 6 7 13 17 18 18 15 14 11 8 7 5 2 5 7 10 16 20 20 19 19
23 24 26 24 23 19 18 17 17 18 18 18 14 13 10 7 9 15 17 17 15 13 12 12 11 8 11 10 9 6 9 7 7 8 10 12 10 13 10 6 6 7 8 9 8 9 10 11 12 13 14 16 18 18
12 12 12 10 13 20 19 19 16 16 17 16 10 8 12 11 8 7 10 13 13 12 11 12 11 11 8 7 6 8 5 6 7 7 7 7 8 8 8 9 7 5 6 7 8 11 12 13 16 18 19 19 19 20
9 9 11 10 10 9 8 9 13 11 11 6 5 5 6 8 9 9 10 10 9 10 9 11 10 5 10 7 7 8 5 5 5 4 4 5 9 10 8 7 7 8 10 11 10 11 13 15 16 18 19 20 22 24
8 8 9 9 9 10 10 13 14 10 6 3 2 5 6 7 7 8 9 10 11 13 14 9 7 8 6 6 7 7 5 6 6 4 3 7 8 9 10 12 10 7 6 10 13 15 16 17 19 20 22 23 26 29
13 11 9 9 8 8 8 7 6 4 3 2 2 3 5 6 7 8 7 7 8 10 12 12 8 8 5 3 4 6 6 6 4 3 5 8 11 9 9 8 9 11 14 16 17 18 19 20 22 24 27 30 33 36
13 12 11 11 10 9 9 7 5 3 2 2 2 3 4 5 6 5 6 6 6 7 8 8 6 6 8 9 9 8 7 7 7 7 8 8 8 9 11 12 14 16 18 18 18 20 22 24 27 30 34 38 41 43
7 6 5 5 4 4 4 4 2 2 2 1 2 3 5 6 6 7 6 5 5 6 7 7 9 8 8 9 9 8 9 10 12 12 11 10 11 13 14 16 18 19 19 20 21 22 25 28 32 36 40 44 46 48
5 5 5 4 4 3 1 1 1 2 2 4 6 8 9 9 10 10 11 10 11 10 11 12 12 11 11 11 11 11 12 13 14 14 14 14 14 15 17 19 19 20 20 21 23 27 31 35 39 43 45 47 47 48
8 7 7 6 4 2 1 2 3 4 5 6 8 9 10 11 12 13 14 15 16 14 11 12 12 13 13 14 15 16 16 15 15 15 15 16 17 18 19 19 19 20 22 25 30 34 37 41 44 45 46 47 48 46
10 10 9 6 4 3 4 3 4 6 5 6 8 9 10 10 9 9 10 10 11 11 13 14 16 16 15 15 16 16 14 13 14 16 16 17 17 18 19 19 21 24 28 33 36 39 42 43 44 46 46 43 41 41
11 7 7 7 7 6 6 6 6 7 5 6 7 8 9 8 9 9 10 10 11 12 13 13 14 16 16 16 21 17 19 20 18 17 17 17 18 18 20 23 27 31 34 36 39 40 42 43 43 41 39 38 38 38
6 7 7 8 6 8 9 10 8 7 6 8 9 8 8 8 8 10 10 11 11 11 11 10 10 11 13 16 16 16 16 16 17 17 17 17 19 22 25 29 32 35 36 37 38 40 41 40 37 35 35 36 36 36
5 4 4 4 5 4 5 6 5 8 9 8 6 9 12 12 6 6 11 13 12 10 9 9 11 12 13 14 15 15 15 16 15 16 19 22 25 28 31 32 34 35 37 39 41 40 37 35 34 32 34 34 35 36
5 4 4 6 6 6 5 6 6 5 6 5 7 10 7 3 3 7 12 12 11 9 9 10 12 14 13 10 11 12 13 16 19 23 25 27 29 31 32 33 34 37 39 39 37 36 35 34 32 32 33 33 35 34
7 7 8 9 9 7 6 8 8 6 5 5 6 5 6 5 7 10 10 9 9 9 9 9 11 11 12 14 16 18 22 25 27 28 29 29 29 31 33 36 38 37 36 36 37 36 34 31 31 31 31 32 32 31
8 8 7 7 7 7 6 5 5 5 6 8 8 8 8 9 10 10 10 10 10 11 12 13 15 17 19 22 25 27 29 28 27 26 27 29 31 34 35 35 34 34 35 35 34 31 29 29 30 30 30 30 30 28
6 7 8 9 10 10 9 10 11 11 11 11 11 12 13 13 14 14 15 15 16 18 19 21 23 24 26 25 25 25 25 25 26 27 29 30 33 34 32 31 32 32 31 29 27 27 27 29 30 30 29 29 28 27
10 12 13 13 13 13 14 14 14 14 14 14 14 15 15 16 16 17 18 20 21 22 22 22 22 21 20 20 21 23 23 25 27 29 31 32 32 31 31 31 31 30 28 27 26 25 26 26 27 27 27 26 25 24
13 13 14 14 13 13 12 12 12 13 14 15 17 17 17 17 20 21 18 18 18 18 18 17 17 18 21 21 23 25 27 28 29 30 30 31 32 31 31 30 29 28 27 25 24 25 26 26 26 26 26 25 24 23
14 14 14 13 12 11 12 14 15 17 17 16 16 15 14 13 13 13 14 14 16 16 17 18 19 21 22 23 25 26 27 30 32 32 31 29 28 27 27 27 26 25 24 23 24 25 26 26 26 26 25 24 24 23
Wind_Direction
139 150 155 146 143 145 152 155 151 159 167 171 175 180 182 185 187 189 185 192 198 212 216 209 200 204 199 200 201 205 207 211 216 218 231 237 242 236 249 258 269 272 264 256 256 251 279 285 308 309 305 302 305 300
157 147 140 138 142 145 149 145 150 158 161 168 172 176 180 182 182 179 185 193 175 191 207 195 188 190 196 200 210 215 222 226 223 221 227 234 235 242 261 260 270 257 267 266 262 271 288 300 303 306 303 300 298 296
143 136 135 140 144 143 140 145 151 155 160 164 169 174 176 177 178 181 193 173 176 188 181 184 193 195 198 199 203 218 225 229 224 240 252 248 248 262 258 265 267 275 282 279 283 293 301 303 304 300 295 292 288 288
134 135 136 137 137 140 143 150 151 153 156 161 164 168 170 175 183 192 180 168 170 182 190 190 196 202 207 215 220 216 221 227 235 246 252 254 257 265 263 268 271 280 282 286 292 303 303 298 298 295 294 295 293 290
135 134 136 137 135 139 149 148 147 149 152 154 159 165 169 173 179 181 137 163 185 189 194 192 199 203 204 206 213 220 230 236 243 250 255 258 263 270 276 277 278 290 296 296 302 302 299 299 296 298 295 293 290 292
133 138 138 136 136 141 135 156 147 147 150 154 157 161 162 166 173 186 187 197 199 196 189 189 197 202 208 212 218 223 230 238 249 257 260 263 269 274 268 270 298 300 299 297 295 295 296 300 298 298 298 295 293 291
141 144 146 158 161 140 139 149 137 160 157 153 160 167 170 173 177 178 192 197 194 193 190 181 194 207 213 219 225 232 240 248 255 261 262 266 272 273 276 280 292 291 295 295 294 295 297 297 297 298 297 295 293 294
148 155 166 175 162 141 148 147 145 140 152 154 165 170 171 173 180 189 195 197 200 199 202 203 194 202 214 225 234 242 248 253 256 260 265 270 272 273 274 279 289 295 295 295 293 294 296 297 297 297 298 298 296 299
160 162 169 170 166 146 151 152 154 156 157 159 160 163 168 176 183 192 197 201 203 205 204 209 208 217 218 229 237 247 251 256 261 261 266 271 272 263 273 281 285 285 285 288 289 293 294 296 296 298 299 303 305 297
163 166 169 174 180 171 159 164 166 163 164 164 164 167 172 182 190 197 202 208 210 211 215 217 221 227 241 246 245 248 254 257 254 262 268 265 266 273 278 283 284 286 289 293 296 298 297 295 295 297 304 302 289 279
170 164 162 166 170 178 168 166 177 185 173 173 178 186 195 204 213 222 223 227 226 221 234 234 240 246 245 240 243 244 241 251 260 252 249 254 253 269 278 279 282 287 290 294 296 298 298 302 306 307 297 284 266 246
183 183 181 189 186 176 192 193 179 179 184 187 194 198 198 199 207 218 217 209 210 213 217 233 240 240 241 246 242 247 245 245 242 247 231 237 253 266 272 279 287 294 301 308 312 315 322 320 311 296 280 296 317 340
187 186 184 185 186 184 193 195 199 194 194 199 200 202 199 206 205 200 192 194 212 225 229 229 228 231 234 235 233 229 228 232 241 226 230 245 261 272 285 296 309 326 345 359 358 336 312 308 314 330 343 348 351 346
157 163 170 161 161 168 179 187 190 188 189 187 183 189 198 196 205 211 214 221 227 225 221 216 218 223 229 226 222 216 228 222 218 214 229 234 241 266 271 273 284 289 290 297 316 336 341 342 336 336 336 333 330 330
103 98 96 101 170 191 204 216 213 200 202 200 191 200 209 215 206 202 213 228 229 219 219 222 235 229 214 208 210 214 224 227 224 229 244 262 264 250 241 251 268 288 307 318 328 335 335 334 332 328 326 326 325 321
133 134 137 143 143 139 139 149 160 178 185 148 161 139 174 197 205 207 206 209 208 215 213 215 223 217 217 216 212 212 225 221 238 242 241 222 201 207 226 260 289 303 310 321 323 314 310 310 311 311 313 313 313 313
135 150 150 152 159 164 166 175 179 181 158 174 171 188 169 173 185 196 198 203 206 209 209 206 202 204 212 220 212 212 237 264 293 300 226 219 238 250 266 285 305 314 302 302 307 308 310 312 313 316 315 314 313 314
93 103 117 130 141 150 157 156 155 152 163 197 218 196 192 191 190 194 200 209 217 224 221 220 232 225 225 239 248 267 285 297 289 254 238 247 266 278 289 292 291 296 303 310 313 312 311 312 312 311 311 312 312 312
81 82 83 88 95 105 110 119 124 105 136 186 203 192 200 201 214 212 205 208 209 208 209 219 231 237 245 262 276 283 283 275 270 271 274 271 262 264 272 281 292 299 304 307 308 309 310 311 312 312 312 312 313 313
60 58 62 66 72 73 75 82 87 51 92 159 211 211 222 228 225 210 211 217 224 231 229 233 245 262 272 270 267 265 265 269 271 275 273 269 269 272 279 288 294 299 302 305 307 308 308 307 307 309 312 313 314 314
10 357 352 346 334 334 326 302 257 312 282 252 267 261 258 244 239 249 257 266 266 265 262 259 256 258 253 249 252 258 263 267 269 269 270 271 275 283 288 292 294 296 298 300 303 305 307 309 311 313 314 314 314 314
339 332 334 331 343 349 239 279 291 287 290 290 292 284 279 279 277 271 271 268 270 277 258 255 261 262 257 254 258 261 266 266 267 269 272 276 281 283 285 288 291 293 296 300 303 307 309 311 313 314 315 315 316 316
342 344 342 360 54 99 75 5 10 358 353 331 320 316 314 310 300 296 281 281 281 273 262 258 254 253 254 259 272 276 277 272 278 270 273 277 278 281 283 284 288 294 301 306 308 309 311 313 314 315 316 317 318 320
347 8 54 55 54 68 50 41 29 18 18 5 3 357 354 353 335 310 306 310 300 282 270 262 253 248 247 245 253 259 254 271 276 274 276 279 281 281 284 291 297 301 303 305 309 311 313 315 315 316 317 320 323 323
73 70 81 59 70 64 72 66 62 51 30 6 348 343 331 332 321 313 301 296 301 291 275 252 232 232 237 251 260 266 273 278 282 283 284 288 290 293 296 298 300 302 306 309 312 312 313 313 314 316 320 323 324 325
75 70 76 47 47 49 33 20 11 8 5 19 356 345 338 322 289 271 286 301 298 286 266 255 243 244 256 267 267 268 276 283 286 288 292 295 297 298 299 302 305 307 309 310 311 312 313 313 315 317 321 321 323 327
79 74 18 357 343 355 27 40 21 14 18 5 339 333 332 298 297 318 327 325 317 292 267 260 262 278 283 283 287 288 289 293 297 298 298 298 298 301 304 306 308 308 309 310 311 313 314 315 315 318 320 322 326 328
72 64 59 55 52 47 48 50 44 37 13 353 346 347 335 327 325 332 336 335 329 323 311 297 294 293 292 292 290 292 297 301 302 302 301 302 303 303 305 307 308 310 312 313 313 312 313 314 316 318 320 323 326 330
66 54 41 29 16 10 6 350 338 318 306 301 295 298 297 299 303 307 309 308 304 300 298 295 294 293 293 295 298 299 300 300 300 300 301 304 306 308 309 310 311 311 312 312 312 312 312 314 316 318 320 323 326 328
21 0 346 336 332 330 319 305 296 295 289 287 287 285 287 294 298 299 299 297 295 293 291 290 290 292 295 297 299 300 301 303 304 305 305 304 305 307 308 309 311 313 314 313 312 312 314 315 318 320 322 324 325 326
341 335 328 321 315 309 304 298 293 289 286 285 285 288 291 294 293 295 295 294 293 293 293 294 295 296 297 298 300 301 301 301 302 302 303 305 308 310 311 311 312 312 311 310 308 310 313 316 318 320 320 320 321 321
329 327 325 327 328 321 314 308 304 300 297 296 295 294 293 290 289 294 297 295 294 294 295 296 296 298 302 304 304 304 304 304 305 307 308 309 309 309 309 309 309 309 307 306 308 312 316 318 320 321 320 320 321 320
317 316 314 315 319 320 315 312 312 309 306 304 299 295 294 294 302 306 301 299 299 298 297 297 299 303 305 306 307 309 310 310 309 307 307 307 307 307 307 309 309 308 308 308 311 315 317 318 319 320 320 320 321 320